Content
SEND FEEDBACK

Daily
Averages
Monthly
Summary
United States of America

WOOSTER, OHIO


Home > North America > United States > Ohio
Elevation: 1150 feet     Latitude: 40 50N     Longitude: 081 54W

WEATHER
 
SELECT A DAY
Number of Records: 213,649;   Date Range: 12/11/96 - 10/29/14
 
SHARE

PRINT THIS DATA

[ ← Previous Day ]
WEATHER ALMANAC - FEBRUARY 5, 2013
[ Next Day → ]
[ °C ]   °F
Weather ElementAverageHighLow
Temperature23.8 °F27 °F (4:56 pm)17.6 °F (8:04 am)
Dewpoint20.2 °F23 °F (8:45 pm)15.8 °F (8:04 am)
Humidity86.6 %96 % (7:56 am)63 % (4:56 pm)
Barometer29.89 in29.97 in (10:56 pm)29.84 in (3:17 pm)
Wind Speed4.5 mph9.2 mph (3:17 pm)
Weather ElementAverage
Visibility4 mi
Wind DirectionSW (223.2 °)

Weather ElementTotal
Precipitation0.06 in
Heating Degree Days42.7 (Base 65)
Averaged from 53 records on February 5, 2013
WEATHER CONDITIONS BREAKOUT
WIND DIRECTION BREAKOUT
WEATHER BY HOUR - FEBRUARY 5, 2013
[ °C ]   °F
Local TimeTemperatureDewpointHumidityBarometerVisibilityWind DirectionWind SpeedGust SpeedPrecipitationEventsConditions
1:38 AM23.0 °F19.4 °F86 %29.85 in3.0 miNorth (350°)4.6 mphOvercast
1:56 AM23.0 °F21.0 °F92 %29.90 in3.0 miCalmOvercast
2:08 AM23.0 °F21.2 °F93 %29.85 in3.0 miNorth (350°)3.5 mphOvercast
2:56 AM21.9 °F19.9 °F92 %29.90 in4.0 miCalmOvercast
3:56 AM21.9 °F19.9 °F92 %29.91 in4.0 miCalmOvercast
4:56 AM21.9 °F19.9 °F92 %29.92 in4.0 miNNW (340°)4.6 mphOvercast
5:04 AM21.2 °F19.4 °F93 %29.86 in4.0 miNorth (350°)5.8 mphOvercast
5:56 AM21.9 °F19.9 °F92 %29.91 in4.0 miNorth (10°)3.5 mphOvercast
6:27 AM21.2 °F19.4 °F93 %29.85 in4.0 miNorth (360°)3.5 mphOvercast
6:56 AM21.9 °F19.9 °F92 %29.90 in4.0 miCalmOvercast
7:15 AM21.2 °F19.4 °F93 %29.85 in4.0 miNorth (360°)3.5 mphOvercast
7:48 AM19.4 °F17.6 °F93 %29.87 in2.0 miNNW (330°)3.5 mphMostly Cloudy
7:56 AM19.0 °F18.0 °F96 %29.92 in2.0 miNNW (340°)3.5 mphScattered Clouds
8:04 AM17.6 °F15.8 °F93 %29.87 in1.8 miNorth (350°)3.5 mphScattered Clouds
8:45 AM19.4 °F17.6 °F93 %29.89 in1.8 miCalmOvercast
8:56 AM21.0 °F19.0 °F92 %29.94 in1.8 miCalmOvercast
9:42 AM21.2 °F19.4 °F93 %29.88 in2.0 miCalmOvercast
9:56 AM23.0 °F19.9 °F88 %29.93 in2.5 miCalmOvercast
10:06 AM24.8 °F19.4 °F80 %29.88 in3.0 miCalmOvercast
10:22 AM24.8 °F21.2 °F86 %29.89 in2.5 miNW (320°)3.5 mphOvercast
10:43 AM24.8 °F19.4 °F80 %29.89 in2.0 miWNW (300°)4.6 mphOvercast
10:56 AM24.1 °F19.9 °F84 %29.93 in2.0 miNW (310°)3.5 mphOvercast
11:20 AM24.8 °F21.2 °F86 %29.89 in3.0 miNW (320°)4.6 mphOvercast
11:27 AM24.8 °F19.4 °F80 %29.89 in2.5 miNW (310°)5.8 mphOvercast
11:36 AM24.8 °F19.4 °F80 %29.89 in3.0 miWNW (300°)5.8 mphOvercast
11:46 AM24.8 °F19.4 °F80 %29.88 in4.0 miNW (310°)3.5 mphHaze
11:56 AM25.0 °F19.9 °F81 %29.92 in6.0 miWNW (290°)5.8 mphHaze
12:56 PM25.0 °F19.0 °F78 %29.89 in9.0 miWNW (300°)8.1 mphOvercast
1:56 PM26.1 °F19.0 °F75 %29.88 in8.0 miWest (270°)5.8 mphOvercast
2:56 PM26.1 °F19.0 °F75 %29.89 in8.0 miWest (260°)8.1 mphMostly Cloudy
3:17 PM26.6 °F19.4 °F74 %29.84 in9.0 miWNW (290°)9.2 mphScattered Clouds
3:56 PM25.0 °F18.0 °F75 %29.89 in9.0 miWest (270°)8.1 mphClear
4:56 PM27.0 °F16.0 °F63 %29.88 in10.0 miWSW (250°)8.1 mphOvercast
5:56 PM26.1 °F17.1 °F69 %29.90 in10.0 miWSW (240°)5.8 mphOvercast
6:56 PM26.1 °F17.1 °F69 %29.90 in10.0 miSW (220°)6.9 mphOvercast
7:26 PM26.6 °F19.4 °F74 %29.87 in2.0 miSW (220°)9.2 mph0.00 inSnowLight Snow
7:36 PM24.8 °F21.2 °F86 %29.87 in2.5 miSSW (210°)8.1 mph0.00 inSnowLight Snow
7:43 PM24.8 °F21.2 °F86 %29.87 in3.0 miSSW (210°)8.1 mph0.00 inSnowLight Snow
8:06 PM24.8 °F21.2 °F86 %29.88 in2.0 miSW (230°)6.9 mph0.00 inSnowLight Snow
8:15 PM24.8 °F21.2 °F86 %29.88 in4.0 miSW (230°)5.8 mph0.00 inSnowLight Snow
8:24 PM24.8 °F21.2 °F86 %29.89 in4.0 miSW (230°)5.8 mph0.00 inSnowLight Snow
8:45 PM24.8 °F23.0 °F93 %29.89 in1.5 miSW (230°)3.5 mph0.00 inSnowLight Snow
8:48 PM24.8 °F23.0 °F93 %29.89 in1.0 miSW (230°)3.5 mph0.00 inSnowLight Snow
8:51 PM24.8 °F23.0 °F93 %29.89 in0.8 miSW (220°)4.6 mph0.00 inSnowLight Snow
8:56 PM25.0 °F23.0 °F92 %29.94 in0.5 miSW (220°)4.6 mph0.01 inFog-SnowSnow
9:13 PM24.8 °F23.0 °F93 %29.90 in1.2 miSW (230°)4.6 mph0.01 inSnowLight Snow
9:21 PM24.8 °F23.0 °F93 %29.90 in3.0 miWSW (240°)4.6 mph0.01 inSnowLight Snow
9:30 PM24.8 °F23.0 °F93 %29.90 in4.0 miSW (230°)5.8 mph0.01 inSnowLight Snow
9:39 PM24.8 °F23.0 °F93 %29.91 in5.0 miWSW (250°)5.8 mph0.01 inOvercast
9:56 PM24.1 °F21.9 °F91 %29.96 in5.0 miWSW (250°)4.6 mph0.01 inMostly Cloudy
10:40 PM24.8 °F23.0 °F93 %29.92 in6.0 miSW (230°)5.8 mphOvercast
10:56 PM25.0 °F23.0 °F92 %29.97 in6.0 miWSW (240°)4.6 mphOvercast
11:56 PM25.0 °F23.0 °F92 %29.97 in5.0 miSW (230°)4.6 mphOvercast
Hourly data recorded from KBJJ, located miles away from Wooster, Ohio







STORIES FROM OUR PARTNERS